[[{"header":{"parameterUnit":"m.s-1","parameterCategory":1,"la1":30.2991,"la2":30.254,"lo1":-89.0895,"lo2":-89.0444,"dy":0.0017,"dx":0.0017,"nx":28,"ny":28,"refTime":"2023-07-19T03:00:00:Z","depth":0,"parameterNumber":2,"parameterNumberName":"U-component_of_WINDS"},"data":[0,0,0,0,0,0,0,0,0,0,0,0,0,0,0,0,0,0,0,0,0,0,0,0,0,0,0,0,0,0,0,0,0,0,0,0,0,0,0,0,0,0,0,0,0,0,0,0,0,0,0,0,0,0,0,0,0,0,0.4759,0.4759,0,0.4836,0.4837,0.4838,0.4865,0.4864,0.4864,0.4864,0.4943,0.4945,0.4947,0,0,0,0,0,0,0,0,0,0,0,0,0,0.4633,0.4635,0.4758,0.4759,0.476,0.4836,0.4837,0.4838,0.4865,0.4864,0.4864,0.4864,0.4942,0.4945,0.4948,0,0,0,0,0,0,0,0,0,0,0,0,0,0.4697,0.4636,0.4758,0.4783,0.4786,0.4835,0.4837,0.4838,0.4865,0.4864,0.4864,0.4864,0.4941,0.4944,0.4948,0.4978,0,0,0.4959,0.496,0,0,0,0,0,0,0,0,0.4693,0.4701,0.4778,0.4781,0.4785,0.484,0.4821,0.4885,0.4865,0.4835,0.4864,0.4863,0.4909,0.4915,0.4931,0.4982,0.4985,0.4959,0.4961,0.4963,0.4964,0,0,0,0,0,0,0,0.4689,0.4698,0.4789,0.4779,0.4783,0.479,0.4798,0.4834,0.4873,0.4837,0.484,0.4848,0.4911,0.4927,0.4933,0.4987,0.4959,0.4962,0.4964,0.4966,0.5067,0.5067,0,0,0,0,0,0,0.468,0.4694,0.4787,0.4791,0.4737,0.4792,0.4802,0.4823,0.4873,0.488,0.4849,0.4849,0.4921,0.4928,0.4935,0.4974,0.4963,0.4966,0.4968,0.5066,0.5067,0.5067,0,0,0,0,0,0,0.4677,0.4688,0.4783,0.4743,0.4756,0.4795,0.4818,0.4825,0.4841,0.4882,0.4889,0.4858,0.4921,0.493,0.4967,0.4977,0.4968,0.4971,0.5065,0.5066,0.5067,0.5051,0,0,0,0,0,0,0.4674,0.4687,0.4699,0.4744,0.4758,0.4814,0.4819,0.4826,0.4847,0.4849,0.4892,0.4899,0.4921,0.4962,0.4971,0.4982,0.4974,0.5065,0.5066,0.5067,0.5051,0.5052,0.5052,0,0,0,0,0,0.4669,0.4692,0.47,0.4711,0.4774,0.4815,0.4823,0.4848,0.4848,0.486,0.4886,0.4898,0.4975,0.4966,0.4976,0.4988,0.5064,0.5065,0.5067,0.5051,0.5052,0.5052,0,0,0,0,0,0,0.4647,0.4698,0.4707,0.4745,0.4775,0.4819,0.4836,0.4848,0.4879,0.4879,0.4909,0.4919,0.4953,0.4975,0.4963,0.502,0.502,0.5023,0.5005,0.5006,0.5006,0.5,0.4977,0,0,0,0,0,0.4647,0.4676,0.4719,0.4748,0.4763,0.4796,0.4815,0.4832,0.4865,0.4877,0.4906,0.4937,0.4968,0.4988,0.5019,0.5055,0.5064,0.5068,0.5068,0.5068,0.5071,0.5091,0.5093,0.5071,0.5071,0.5071,0,0,0.4646,0.4678,0.4694,0.4744,0.477,0.4799,0.4807,0.4838,0.4859,0.4882,0.4919,0.4941,0.4977,0.5013,0.5031,0.5032,0.5079,0.507,0.507,0.5072,0.5092,0.5094,0.5096,0.5072,0.5072,0.5072,0,0,0.466,0.4687,0.4714,0.4739,0.4778,0.48,0.4807,0.4849,0.4864,0.4902,0.4919,0.4945,0.4998,0.5024,0.5043,0.5066,0.5078,0.5075,0.5077,0.5096,0.5098,0.5099,0.5107,0.511,0.5078,0.5078,0.5078,0,0.4654,0.4699,0.4726,0.4756,0.4777,0.4799,0.4826,0.485,0.4896,0.491,0.4911,0.4978,0.5004,0.5046,0.5051,0.5067,0.5075,0.507,0.5095,0.5097,0.5099,0.5107,0.511,0.5077,0.5077,0.5077,0.5077,0,0.469,0.4721,0.4738,0.4782,0.4806,0.4834,0.4865,0.4885,0.49,0.4922,0.4959,0.4991,0.5029,0.504,0.5055,0.5084,0.5084,0.509,0.509,0.51,0.5108,0.5111,0.5076,0.5077,0.5077,0.5077,0,0,0.4691,0.4751,0.4757,0.4777,0.4821,0.4845,0.4874,0.4911,0.4928,0.4959,0.4984,0.5028,0.5034,0.5056,0.5074,0.509,0.5106,0.5094,0.5096,0.5095,0.514,0.5135,0.5138,0.5114,0.5115,0.5115,0.5137,0,0.4711,0.4764,0.4789,0.4831,0.486,0.4881,0.4906,0.4936,0.4957,0.4984,0.5008,0.5038,0.5044,0.5057,0.5075,0.51,0.5115,0.5099,0.5137,0.5138,0.5127,0.5142,0.5137,0.5156,0.514,0.514,0.5141,0,0.474,0.4771,0.4816,0.4857,0.487,0.4892,0.4928,0.4954,0.4987,0.5002,0.5026,0.5044,0.5075,0.5073,0.5116,0.5105,0.5122,0.5136,0.5138,0.5142,0.514,0.5146,0.5162,0.5165,0.5146,0.5145,0.5145,0,0.4736,0.479,0.4824,0.484,0.4889,0.4904,0.4925,0.4958,0.4979,0.501,0.5023,0.5057,0.5076,0.5102,0.5127,0.5124,0.5168,0.5169,0.518,0.5179,0.5188,0.5187,0.5206,0.52,0.5199,0.5199,0.5199,0,0.4755,0.4781,0.4823,0.4843,0.4873,0.4902,0.4931,0.4953,0.4983,0.5008,0.5028,0.5051,0.5084,0.5111,0.5131,0.5163,0.5172,0.5184,0.5189,0.5182,0.518,0.5193,0.5192,0.52,0.52,0.52,0.52,0,0.4755,0.4784,0.4822,0.4865,0.4876,0.4897,0.4933,0.4954,0.4976,0.5008,0.5017,0.5052,0.5084,0.5113,0.5156,0.517,0.5203,0.5209,0.5191,0.5194,0.5204,0.5202,0.5232,0.5237,0.5226,0.5226,0.5226,0,0.4765,0.4786,0.4831,0.4849,0.487,0.4899,0.4921,0.4949,0.497,0.501,0.5026,0.506,0.5089,0.514,0.517,0.5203,0.521,0.5218,0.5215,0.5207,0.5209,0.5208,0.521,0.5218,0.5218,0.5218,0.5218,0,0.4779,0.4792,0.4822,0.4857,0.4882,0.491,0.4939,0.4953,0.4987,0.5009,0.5043,0.5066,0.511,0.5144,0.518,0.5201,0.5215,0.5218,0.5223,0.5216,0.5204,0.521,0.5191,0.5218,0.5218,0.5218,0.5218,0.5218,0.4784,0.4804,0.4839,0.4871,0.4896,0.4923,0.4944,0.4969,0.4998,0.5037,0.5052,0.5086,0.5119,0.5169,0.519,0.5217,0.522,0.5226,0.5228,0.5229,0.5227,0.52,0.5224,0.5224,0.5224,0.5224,0.5224,0,0.4799,0.4822,0.4852,0.4892,0.4918,0.4929,0.4962,0.4982,0.5012,0.5042,0.507,0.5109,0.5142,0.5173,0.5207,0.5223,0.523,0.5231,0.523,0.5235,0.5224,0.5216,0.5225,0.5225,0.5225,0.5225,0.5225,0.5225,0.4809,0.4843,0.486,0.4906,0.493,0.4964,0.4982,0.5006,0.503,0.5072,0.51,0.512,0.5151,0.5187,0.5218,0.5226,0.5238,0.5237,0.5247,0.5236,0.5235,0.5235,0.5228,0.5239,0.5239,0.5255,0.5256,0.5256]},{"header":{"parameterUnit":"m.s-1","parameterCategory":1,"la1":30.2991,"la2":30.254,"lo1":-89.0895,"lo2":-89.0444,"dy":0.0017,"dx":0.0017,"nx":28,"ny":28,"refTime":"2023-07-19T03:00:00:Z","depth":0,"parameterNumber":3,"parameterNumberName":"V-component_of_WINDS"},"data":[0,0,0,0,0,0,0,0,0,0,0,0,0,0,0,0,0,0,0,0,0,0,0,0,0,0,0,0,0,0,0,0,0,0,0,0,0,0,0,0,0,0,0,0,0,0,0,0,0,0,0,0,0,0,0,0,0,0,3.0422,3.042,0,3.0308,3.0307,3.0305,3.0255,3.0255,3.0256,3.0256,3.013,3.0127,3.0123,0,0,0,0,0,0,0,0,0,0,0,0,0,3.0587,3.0584,3.0422,3.042,3.0419,3.0308,3.0307,3.0305,3.0255,3.0255,3.0256,3.0256,3.0131,3.0127,3.0123,0,0,0,0,0,0,0,0,0,0,0,0,0,3.0498,3.0583,3.0422,3.0381,3.0376,3.0308,3.0306,3.0305,3.0255,3.0255,3.0256,3.0256,3.0133,3.0127,3.0122,3.0084,0,0,3.0106,3.0104,0,0,0,0,0,0,0,0,3.0503,3.0492,3.0388,3.0384,3.0378,3.0296,3.0319,3.023,3.0255,3.0301,3.0256,3.0256,3.0184,3.0175,3.0153,3.0078,3.0073,3.0106,3.0102,3.01,3.0099,0,0,0,0,0,0,0,3.051,3.0497,3.0376,3.0387,3.0381,3.0365,3.0353,3.0302,3.0242,3.0297,3.0293,3.0281,3.0182,3.0158,3.0149,3.0071,3.0106,3.0101,3.0098,3.0096,2.9958,2.9958,0,0,0,0,0,0,3.0524,3.0502,3.038,3.0373,3.0443,3.0362,3.0348,3.0322,3.0243,3.0231,3.0281,3.0279,3.0167,3.0156,3.0145,3.0095,3.01,3.0095,3.0092,2.9959,2.9958,2.9958,0,0,0,0,0,0,3.0527,3.0513,3.0385,3.0437,3.0419,3.0359,3.033,3.032,3.0296,3.0231,3.0219,3.0268,3.0167,3.0152,3.01,3.0089,3.0093,3.0088,2.9959,2.9958,2.9958,2.9994,0,0,0,0,0,0,3.0532,3.0515,3.0502,3.0437,3.0417,3.0345,3.0329,3.0317,3.0288,3.0285,3.0215,3.0204,3.0166,3.0108,3.0095,3.0082,3.0084,2.996,2.9959,2.9958,2.9994,2.9995,2.9996,0,0,0,0,0,3.0539,3.0515,3.0502,3.0487,3.0399,3.0344,3.0332,3.0291,3.0288,3.0272,3.023,3.0206,3.0093,3.0103,3.0088,3.0073,2.996,2.9959,2.9958,2.9993,2.9995,2.9996,0,0,0,0,0,0,3.0576,3.0505,3.049,3.0445,3.0401,3.0336,3.0316,3.0294,3.0248,3.0246,3.0194,3.0179,3.0131,3.0097,3.011,3.0032,3.0024,3.002,3.0056,3.0057,3.0058,3.0067,3.0079,0,0,0,0,0,3.058,3.0544,3.0483,3.0449,3.0428,3.0376,3.035,3.0323,3.0274,3.0254,3.0208,3.016,3.0113,3.0083,3.0036,2.9989,2.9972,2.9971,2.9972,2.9973,2.997,2.9941,2.994,2.9954,2.9954,2.9954,0,0,3.0586,3.0543,3.0523,3.0455,3.0418,3.038,3.036,3.032,3.029,3.0247,3.0196,3.0161,3.0102,3.0053,3.0028,3.0022,2.9963,2.9972,2.9974,2.9969,2.994,2.9939,2.9938,2.9953,2.9953,2.9954,0,0,3.0578,3.0542,3.051,3.0474,3.042,3.0385,3.0378,3.0316,3.0292,3.024,3.0207,3.0169,3.009,3.005,3.002,2.9997,2.9973,2.9983,2.9988,2.9961,2.996,2.9959,2.995,2.9948,2.998,2.998,2.998,0,3.0591,3.0535,3.0495,3.0458,3.0428,3.0391,3.0357,3.0323,3.0254,3.0234,3.0229,3.013,3.0088,3.0028,3.0023,3.0,2.9987,2.9991,2.9964,2.9962,2.9961,2.9952,2.9949,2.9982,2.9982,2.9982,2.9981,0,3.0554,3.0515,3.0495,3.0434,3.0402,3.0366,3.0319,3.0291,3.0266,3.0232,3.0179,3.0128,3.0071,3.0054,3.0028,2.999,2.9988,2.9975,2.9966,2.9962,2.9952,2.9949,2.9984,2.9984,2.9983,2.9983,0,0,3.0565,3.0484,3.0477,3.0449,3.0387,3.0355,3.0316,3.0263,3.024,3.0194,3.0159,3.0094,3.0081,3.0046,3.0016,2.9992,2.9977,2.9981,2.9978,2.9981,2.9931,2.9941,2.9938,2.9961,2.996,2.9959,2.9935,0,3.0547,3.0481,3.0444,3.0392,3.0354,3.0319,3.0285,3.0242,3.0208,3.017,3.0131,3.0086,3.0073,3.0052,3.0027,2.9984,2.9966,2.9985,2.9925,2.9924,2.9941,2.9933,2.9944,2.9924,2.9932,2.9931,2.993,0,3.0518,3.0477,3.0422,3.0364,3.0347,3.0318,3.0266,3.0231,3.018,3.0157,3.012,3.009,3.0045,3.0041,2.9977,2.9992,2.9965,2.994,2.9938,2.993,2.9927,2.9925,2.9917,2.9914,2.9924,2.9925,2.9925,0,3.0532,3.0461,3.0419,3.0396,3.0328,3.0309,3.0279,3.0229,3.0199,3.0153,3.0133,3.0082,3.0053,3.0013,2.9968,2.997,2.9909,2.9901,2.9887,2.9888,2.9875,2.9877,2.9863,2.9859,2.9859,2.9859,2.9859,0,3.0516,3.0483,3.0425,3.0399,3.0361,3.0318,3.028,3.0247,3.0203,3.0168,3.0133,3.01,3.0044,3.0004,2.9968,2.9921,2.9908,2.9887,2.9878,2.989,2.9892,2.9871,2.9871,2.9858,2.9859,2.9859,2.9859,0,3.0524,3.0484,3.0436,3.0377,3.0361,3.0335,3.0283,3.0254,3.022,3.0176,3.0163,3.0108,3.0058,3.0011,2.9943,2.992,2.9872,2.986,2.9891,2.9885,2.9874,2.9876,2.9845,2.9838,2.9841,2.9841,2.9841,0,3.0516,3.0491,3.043,3.0406,3.0378,3.0339,3.0309,3.0266,3.0236,3.0177,3.0156,3.0105,3.0062,2.9984,2.9935,2.9884,2.987,2.9863,2.9861,2.9875,2.9869,2.9871,2.9868,2.9863,2.9864,2.9864,2.9864,0,3.0507,3.0489,3.045,3.0404,3.0372,3.0332,3.0292,3.0273,3.0221,3.0189,3.014,3.0107,3.004,2.9989,2.9932,2.9897,2.9871,2.9865,2.9859,2.9871,2.9889,2.9878,2.9893,2.9866,2.9865,2.9865,2.9865,2.9865,3.0506,3.0482,3.0436,3.0394,3.036,3.0323,3.0294,3.0257,3.0217,3.0161,3.0137,3.0087,3.0036,2.9957,2.9924,2.9882,2.9876,2.9867,2.9864,2.9863,2.9865,2.9897,2.9871,2.9871,2.9871,2.9871,2.9871,0,3.0495,3.0464,3.0426,3.0372,3.0338,3.0321,3.0275,3.0247,3.0205,3.0161,3.012,3.0063,3.0013,2.9962,2.9909,2.9885,2.9872,2.9873,2.9874,2.9866,2.9874,2.9885,2.9885,2.9885,2.9885,2.9885,2.9885,2.9885,3.0485,3.0444,3.042,3.036,3.0328,3.0282,3.0258,3.0223,3.0188,3.0127,3.0087,3.0055,3.0007,2.9951,2.9904,2.989,2.9871,2.9875,2.9858,2.9866,2.9865,2.9865,2.9874,2.9872,2.9872,2.9853,2.9853,2.9853]}]]